Time,TemperatureF,DewpointF,PressureIn,WindDirection,WindDirectionDegrees,WindSpeedMPH,WindSpeedGustMPH,Humidity,HourlyPrecipIn,Conditions,Clouds,dailyrainin,SoftwareType,DateUTC
2014-02-22 00:01:00,32.9,30.3,29.69,South,180,0.0,0.0,90,0.00,RA,,0.00,WeatherDisplay:10.37,2014-02-22 05:01:00,
2014-02-22 00:02:00,32.9,30.3,29.69,South,180,0.0,0.0,90,0.00,RA,,0.00,WeatherDisplay:10.37,2014-02-22 05:02:00,
2014-02-22 00:07:00,32.7,30.1,29.69,South,180,0.0,0.0,90,0.00,RA,,0.00,WeatherDisplay:10.37,2014-02-22 05:07:00,
2014-02-22 00:12:00,32.5,29.9,29.69,South,180,0.0,0.0,90,0.00,,,0.00,WeatherDisplay:10.37,2014-02-22 05:12:00,
2014-02-22 00:17:00,32.4,29.8,29.69,South,180,0.0,0.0,90,0.00,,,0.00,WeatherDisplay:10.37,2014-02-22 05:17:00,
2014-02-22 00:22:00,32.2,29.6,29.69,South,180,0.0,0.0,90,0.00,,,0.00,WeatherDisplay:10.37,2014-02-22 05:22:00,
2014-02-22 00:27:00,31.8,29.2,29.70,South,180,0.0,0.0,90,0.00,,,0.00,WeatherDisplay:10.37,2014-02-22 05:27:00,
2014-02-22 00:32:00,31.6,29.0,29.70,South,180,0.0,0.0,90,0.00,,,0.00,WeatherDisplay:10.37,2014-02-22 05:32:00,
2014-02-22 00:37:00,31.6,29.0,29.70,South,180,0.0,0.0,90,0.00,,,0.00,WeatherDisplay:10.37,2014-02-22 05:37:00,
2014-02-22 00:42:00,31.3,28.7,29.70,South,180,0.0,0.0,90,0.00,,,0.00,WeatherDisplay:10.37,2014-02-22 05:42:00,
2014-02-22 00:47:00,31.1,28.5,29.70,South,180,0.0,0.0,90,0.00,,,0.00,WeatherDisplay:10.37,2014-02-22 05:47:00,
2014-02-22 00:52:00,30.9,28.3,29.70,South,180,0.0,0.0,90,0.00,,,0.00,WeatherDisplay:10.37,2014-02-22 05:52:00,
2014-02-22 00:57:00,30.7,28.2,29.70,South,180,0.0,0.0,90,0.00,,,0.00,WeatherDisplay:10.37,2014-02-22 05:57:00,
2014-02-22 01:02:00,30.6,28.0,29.70,South,180,0.0,0.0,90,0.00,,,0.00,WeatherDisplay:10.37,2014-02-22 06:02:00,
2014-02-22 01:07:00,30.0,27.4,29.70,South,180,0.0,0.0,90,0.00,,,0.00,WeatherDisplay:10.37,2014-02-22 06:07:00,
2014-02-22 01:12:00,30.0,27.4,29.70,South,180,0.0,0.0,90,0.00,,,0.00,WeatherDisplay:10.37,2014-02-22 06:12:00,
2014-02-22 01:17:00,29.8,27.3,29.70,South,180,0.0,0.0,90,0.00,,,0.00,WeatherDisplay:10.37,2014-02-22 06:17:00,
2014-02-22 01:22:00,29.8,27.3,29.71,South,180,0.0,0.0,90,0.00,,,0.00,WeatherDisplay:10.37,2014-02-22 06:22:00,
2014-02-22 01:27:00,29.7,27.1,29.70,South,180,0.0,0.0,90,0.00,,,0.00,WeatherDisplay:10.37,2014-02-22 06:27:00,
2014-02-22 01:32:00,29.5,26.9,29.70,South,180,0.0,0.0,90,0.00,,,0.00,WeatherDisplay:10.37,2014-02-22 06:32:00,
2014-02-22 01:37:00,29.3,26.7,29.71,South,180,0.0,0.0,90,0.00,,,0.00,WeatherDisplay:10.37,2014-02-22 06:37:00,
2014-02-22 01:42:00,29.1,26.6,29.70,South,180,0.0,0.0,90,0.00,,,0.00,WeatherDisplay:10.37,2014-02-22 06:42:00,
2014-02-22 01:47:00,29.1,26.6,29.70,South,180,0.0,0.0,90,0.00,,,0.00,WeatherDisplay:10.37,2014-02-22 06:47:00,
2014-02-22 01:52:00,28.9,26.4,29.70,South,180,0.0,0.0,90,0.00,,,0.00,WeatherDisplay:10.37,2014-02-22 06:52:00,
2014-02-22 01:57:00,28.8,26.2,29.70,South,180,0.0,0.0,90,0.00,,,0.00,WeatherDisplay:10.37,2014-02-22 06:57:00,
2014-02-22 02:02:00,28.6,26.0,29.71,South,180,0.0,0.0,90,0.00,,,0.00,WeatherDisplay:10.37,2014-02-22 07:02:00,
2014-02-22 02:07:00,28.6,26.0,29.72,South,180,0.0,0.0,90,0.00,,,0.00,WeatherDisplay:10.37,2014-02-22 07:07:00,
2014-02-22 02:12:00,28.2,25.7,29.71,South,180,0.0,0.0,90,0.00,,,0.00,WeatherDisplay:10.37,2014-02-22 07:12:00,
2014-02-22 02:17:00,28.2,25.7,29.71,South,180,0.0,0.0,90,0.00,,,0.00,WeatherDisplay:10.37,2014-02-22 07:17:00,
2014-02-22 02:22:00,28.2,25.7,29.71,South,180,0.0,0.0,90,0.00,,,0.00,WeatherDisplay:10.37,2014-02-22 07:22:00,
2014-02-22 02:27:00,28.0,25.5,29.72,South,180,0.0,0.0,90,0.00,,,0.00,WeatherDisplay:10.37,2014-02-22 07:27:00,
2014-02-22 02:32:00,28.0,25.5,29.72,South,180,0.0,0.0,90,0.00,,,0.00,WeatherDisplay:10.37,2014-02-22 07:32:00,
2014-02-22 02:37:00,28.0,25.5,29.71,South,180,0.0,0.0,90,0.00,,,0.00,WeatherDisplay:10.37,2014-02-22 07:37:00,
2014-02-22 02:42:00,28.0,25.5,29.71,South,180,0.0,0.0,90,0.00,,,0.00,WeatherDisplay:10.37,2014-02-22 07:42:00,
2014-02-22 02:47:00,28.0,25.5,29.71,South,180,0.0,0.0,90,0.00,,,0.00,WeatherDisplay:10.37,2014-02-22 07:47:00,
2014-02-22 02:52:00,28.0,25.5,29.72,South,180,0.0,0.0,90,0.00,,,0.00,WeatherDisplay:10.37,2014-02-22 07:52:00,
2014-02-22 02:57:00,28.0,25.5,29.72,South,180,0.0,0.0,90,0.00,,,0.00,WeatherDisplay:10.37,2014-02-22 07:57:00,
2014-02-22 03:02:00,28.0,25.8,29.72,South,180,0.0,0.0,91,0.00,,,0.00,WeatherDisplay:10.37,2014-02-22 08:02:00,
2014-02-22 03:07:00,28.0,25.8,29.72,South,180,0.0,0.0,91,0.00,,,0.00,WeatherDisplay:10.37,2014-02-22 08:07:00,
2014-02-22 03:12:00,28.0,25.8,29.72,South,180,0.0,0.0,91,0.00,,,0.00,WeatherDisplay:10.37,2014-02-22 08:12:00,
2014-02-22 03:17:00,28.0,25.8,29.72,South,180,0.0,0.0,91,0.00,,,0.00,WeatherDisplay:10.37,2014-02-22 08:17:00,
2014-02-22 03:22:00,27.9,25.6,29.72,South,180,0.0,0.0,91,0.00,,,0.00,WeatherDisplay:10.37,2014-02-22 08:22:00,
2014-02-22 03:27:00,27.7,25.4,29.72,South,180,0.0,0.0,91,0.00,,,0.00,WeatherDisplay:10.37,2014-02-22 08:27:00,
2014-02-22 03:32:00,27.7,25.1,29.72,South,180,0.0,0.0,90,0.00,,,0.00,WeatherDisplay:10.37,2014-02-22 08:32:00,
2014-02-22 03:37:00,27.5,25.0,29.72,South,180,0.0,0.0,90,0.00,,,0.00,WeatherDisplay:10.37,2014-02-22 08:37:00,
2014-02-22 03:42:00,27.3,24.8,29.72,South,180,0.0,0.0,90,0.00,,,0.00,WeatherDisplay:10.37,2014-02-22 08:42:00,
2014-02-22 03:47:00,27.1,24.6,29.72,South,180,0.0,0.0,90,0.00,,,0.00,WeatherDisplay:10.37,2014-02-22 08:47:00,
2014-02-22 03:52:00,27.1,24.6,29.72,South,180,0.0,0.0,90,0.00,,,0.00,WeatherDisplay:10.37,2014-02-22 08:52:00,
2014-02-22 03:57:00,26.8,24.2,29.72,South,180,0.0,0.0,90,0.00,,,0.00,WeatherDisplay:10.37,2014-02-22 08:57:00,
2014-02-22 04:02:00,26.8,24.2,29.72,South,180,0.0,0.0,90,0.00,,,0.00,WeatherDisplay:10.37,2014-02-22 09:02:00,
2014-02-22 04:07:00,26.6,24.1,29.72,South,180,0.0,0.0,90,0.00,,,0.00,WeatherDisplay:10.37,2014-02-22 09:07:00,
2014-02-22 04:12:00,26.4,23.9,29.72,South,180,0.0,0.0,90,0.00,,,0.00,WeatherDisplay:10.37,2014-02-22 09:12:00,
2014-02-22 04:17:00,26.4,23.9,29.73,South,180,0.0,0.0,90,0.00,,,0.00,WeatherDisplay:10.37,2014-02-22 09:17:00,
2014-02-22 04:22:00,26.4,23.9,29.72,South,180,0.0,0.0,90,0.00,,,0.00,WeatherDisplay:10.37,2014-02-22 09:22:00,
2014-02-22 04:27:00,26.4,23.9,29.72,South,180,0.0,0.0,90,0.00,,,0.00,WeatherDisplay:10.37,2014-02-22 09:27:00,
2014-02-22 04:32:00,26.2,23.7,29.73,South,180,0.0,0.0,90,0.00,,,0.00,WeatherDisplay:10.37,2014-02-22 09:32:00,
2014-02-22 04:37:00,26.2,23.7,29.73,South,180,0.0,0.0,90,0.00,,,0.00,WeatherDisplay:10.37,2014-02-22 09:37:00,
2014-02-22 04:42:00,26.1,23.5,29.73,South,180,0.0,0.0,90,0.00,,,0.00,WeatherDisplay:10.37,2014-02-22 09:42:00,
2014-02-22 04:47:00,25.9,23.6,29.74,South,180,0.0,0.0,91,0.00,,,0.00,WeatherDisplay:10.37,2014-02-22 09:47:00,
2014-02-22 04:52:00,25.9,23.6,29.74,South,180,0.0,0.0,91,0.00,,,0.00,WeatherDisplay:10.37,2014-02-22 09:52:00,
2014-02-22 04:57:00,25.7,23.4,29.74,South,180,0.0,0.0,91,0.00,,,0.00,WeatherDisplay:10.37,2014-02-22 09:57:00,
2014-02-22 05:02:00,25.7,23.4,29.75,South,180,0.0,0.0,91,0.00,,,0.00,WeatherDisplay:10.37,2014-02-22 10:02:00,
2014-02-22 05:07:00,25.5,23.0,29.75,South,180,0.0,0.0,90,0.00,,,0.00,WeatherDisplay:10.37,2014-02-22 10:07:00,
2014-02-22 05:12:00,25.5,23.0,29.75,South,180,0.0,0.0,90,0.00,,,0.00,WeatherDisplay:10.37,2014-02-22 10:12:00,
2014-02-22 05:17:00,25.5,23.0,29.76,South,180,0.0,0.0,90,0.00,,,0.00,WeatherDisplay:10.37,2014-02-22 10:17:00,
2014-02-22 05:22:00,25.5,23.0,29.76,South,180,0.0,0.0,90,0.00,,,0.00,WeatherDisplay:10.37,2014-02-22 10:22:00,
2014-02-22 05:27:00,25.3,22.8,29.76,South,180,0.0,0.0,90,0.00,,,0.00,WeatherDisplay:10.37,2014-02-22 10:27:00,
2014-02-22 05:32:00,25.3,22.8,29.76,South,180,0.0,0.0,90,0.00,,,0.00,WeatherDisplay:10.37,2014-02-22 10:32:00,
2014-02-22 05:37:00,25.2,22.9,29.76,South,180,0.0,0.0,91,0.00,,,0.00,WeatherDisplay:10.37,2014-02-22 10:37:00,
2014-02-22 05:42:00,25.2,22.9,29.76,South,180,0.0,0.0,91,0.00,,,0.00,WeatherDisplay:10.37,2014-02-22 10:42:00,
2014-02-22 05:47:00,25.0,22.5,29.76,South,180,0.0,0.0,90,0.00,,,0.00,WeatherDisplay:10.37,2014-02-22 10:47:00,
2014-02-22 05:52:00,25.0,22.7,29.76,South,180,0.0,0.0,91,0.00,,,0.00,WeatherDisplay:10.37,2014-02-22 10:52:00,
2014-02-22 05:57:00,24.6,22.1,29.77,South,180,0.0,0.0,90,0.00,,,0.00,WeatherDisplay:10.37,2014-02-22 10:57:00,
2014-02-22 06:02:00,24.6,22.1,29.76,South,180,0.0,0.0,90,0.00,,,0.00,WeatherDisplay:10.37,2014-02-22 11:02:00,
2014-02-22 06:07:00,24.6,22.1,29.77,South,180,0.0,0.0,90,0.00,,,0.00,WeatherDisplay:10.37,2014-02-22 11:07:00,
2014-02-22 06:12:00,24.6,22.1,29.76,South,180,0.0,0.0,90,0.00,,,0.00,WeatherDisplay:10.37,2014-02-22 11:12:00,
2014-02-22 06:17:00,24.6,22.1,29.77,South,180,0.0,0.0,90,0.00,,,0.00,WeatherDisplay:10.37,2014-02-22 11:17:00,
2014-02-22 06:22:00,24.6,22.4,29.77,South,180,0.0,0.0,91,0.00,,,0.00,WeatherDisplay:10.37,2014-02-22 11:22:00,
2014-02-22 06:27:00,25.0,22.7,29.77,South,180,0.0,0.0,91,0.00,,,0.00,WeatherDisplay:10.37,2014-02-22 11:27:00,
2014-02-22 06:32:00,25.0,22.7,29.77,South,180,0.0,0.0,91,0.00,,,0.00,WeatherDisplay:10.37,2014-02-22 11:32:00,
2014-02-22 06:37:00,25.0,22.7,29.77,South,180,0.0,0.0,91,0.00,,,0.00,WeatherDisplay:10.37,2014-02-22 11:37:00,
2014-02-22 06:42:00,25.0,22.7,29.77,South,180,0.0,0.0,91,0.00,,,0.00,WeatherDisplay:10.37,2014-02-22 11:42:00,
2014-02-22 06:47:00,25.0,22.7,29.77,South,180,0.0,0.0,91,0.00,,,0.00,WeatherDisplay:10.37,2014-02-22 11:47:00,
2014-02-22 06:52:00,25.0,22.7,29.77,South,180,0.0,0.0,91,0.00,,,0.00,WeatherDisplay:10.37,2014-02-22 11:52:00,
2014-02-22 06:57:00,25.0,22.7,29.77,South,180,0.0,0.0,91,0.00,,,0.00,WeatherDisplay:10.37,2014-02-22 11:57:00,
2014-02-22 07:02:00,25.0,22.7,29.77,South,180,0.0,0.0,91,0.00,,,0.00,WeatherDisplay:10.37,2014-02-22 12:02:00,
2014-02-22 07:07:00,25.2,22.9,29.77,South,180,0.0,0.0,91,0.00,,,0.00,WeatherDisplay:10.37,2014-02-22 12:07:00,
2014-02-22 07:12:00,25.2,22.9,29.78,South,180,0.0,0.0,91,0.00,,,0.00,WeatherDisplay:10.37,2014-02-22 12:12:00,
2014-02-22 07:17:00,25.2,22.9,29.78,South,180,0.0,0.0,91,0.00,,,0.00,WeatherDisplay:10.37,2014-02-22 12:17:00,
2014-02-22 07:22:00,25.2,22.9,29.78,South,180,0.0,0.0,91,0.00,,,0.00,WeatherDisplay:10.37,2014-02-22 12:22:00,
2014-02-22 07:27:00,25.3,23.1,29.78,South,180,0.0,0.0,91,0.00,,,0.00,WeatherDisplay:10.37,2014-02-22 12:27:00,
2014-02-22 07:32:00,25.3,23.1,29.78,South,180,0.0,0.0,91,0.00,,,0.00,WeatherDisplay:10.37,2014-02-22 12:32:00,
2014-02-22 07:37:00,25.3,23.1,29.77,South,180,0.0,0.0,91,0.00,,,0.00,WeatherDisplay:10.37,2014-02-22 12:37:00,
2014-02-22 07:42:00,25.5,23.3,29.77,South,180,0.0,0.0,91,0.00,,,0.00,WeatherDisplay:10.37,2014-02-22 12:42:00,
2014-02-22 07:47:00,25.9,23.6,29.78,South,180,0.0,0.0,91,0.00,,,0.00,WeatherDisplay:10.37,2014-02-22 12:47:00,
2014-02-22 07:52:00,25.9,23.6,29.77,South,180,0.0,0.0,91,0.00,,,0.00,WeatherDisplay:10.37,2014-02-22 12:52:00,
2014-02-22 07:57:00,26.2,24.0,29.77,South,180,0.0,0.0,91,0.00,,,0.00,WeatherDisplay:10.37,2014-02-22 12:57:00,
2014-02-22 08:02:00,26.4,24.1,29.77,South,180,0.0,0.0,91,0.00,,,0.00,WeatherDisplay:10.37,2014-02-22 13:02:00,
2014-02-22 08:07:00,26.8,24.5,29.77,South,180,0.0,0.0,91,0.00,,,0.00,WeatherDisplay:10.37,2014-02-22 13:07:00,
2014-02-22 08:12:00,27.1,24.9,29.77,South,180,0.0,0.0,91,0.00,,,0.00,WeatherDisplay:10.37,2014-02-22 13:12:00,
2014-02-22 08:17:00,27.5,25.2,29.77,South,180,0.0,0.0,91,0.00,,,0.00,WeatherDisplay:10.37,2014-02-22 13:17:00,
2014-02-22 08:22:00,28.0,25.8,29.76,South,180,0.0,0.0,91,0.00,,,0.00,WeatherDisplay:10.37,2014-02-22 13:22:00,
2014-02-22 08:27:00,28.2,25.9,29.77,South,180,0.0,0.0,91,0.00,,,0.00,WeatherDisplay:10.37,2014-02-22 13:27:00,
2014-02-22 08:32:00,28.6,26.3,29.76,South,180,0.0,0.0,91,0.00,,,0.00,WeatherDisplay:10.37,2014-02-22 13:32:00,
2014-02-22 08:37:00,28.9,26.6,29.76,South,180,0.0,0.0,91,0.00,,,0.00,WeatherDisplay:10.37,2014-02-22 13:37:00,
2014-02-22 08:42:00,29.1,26.8,29.76,South,180,0.0,0.0,91,0.00,,,0.00,WeatherDisplay:10.37,2014-02-22 13:42:00,
2014-02-22 08:47:00,29.8,27.5,29.77,South,180,0.0,0.0,91,0.00,,,0.00,WeatherDisplay:10.37,2014-02-22 13:47:00,
2014-02-22 08:52:00,30.2,28.2,29.76,South,180,0.0,0.0,92,0.00,,,0.00,WeatherDisplay:10.37,2014-02-22 13:52:00,
2014-02-22 08:57:00,30.7,28.7,29.76,South,180,0.0,0.0,92,0.00,,,0.00,WeatherDisplay:10.37,2014-02-22 13:57:00,
2014-02-22 09:02:00,30.9,28.9,29.77,South,180,0.0,0.0,92,0.00,,,0.00,WeatherDisplay:10.37,2014-02-22 14:02:00,
2014-02-22 09:07:00,31.6,29.6,29.76,South,180,0.0,0.0,92,0.00,,,0.00,WeatherDisplay:10.37,2014-02-22 14:07:00,
2014-02-22 09:12:00,31.8,29.8,29.76,South,180,0.0,0.0,92,0.00,,,0.00,WeatherDisplay:10.37,2014-02-22 14:12:00,
2014-02-22 09:17:00,32.4,30.3,29.76,South,180,0.0,0.0,92,0.00,,,0.00,WeatherDisplay:10.37,2014-02-22 14:17:00,
2014-02-22 09:22:00,32.7,30.7,29.76,South,180,0.0,0.0,92,0.00,,,0.00,WeatherDisplay:10.37,2014-02-22 14:22:00,
2014-02-22 09:27:00,33.3,31.2,29.76,South,180,0.0,0.0,92,0.00,,,0.00,WeatherDisplay:10.37,2014-02-22 14:27:00,
2014-02-22 09:32:00,33.8,31.5,29.76,South,180,0.0,0.0,91,0.00,,,0.00,WeatherDisplay:10.37,2014-02-22 14:32:00,
2014-02-22 09:37:00,34.3,32.0,29.75,South,180,0.0,0.0,91,0.00,,,0.00,WeatherDisplay:10.37,2014-02-22 14:37:00,
2014-02-22 09:42:00,34.9,32.5,29.75,WSW,248,0.0,0.0,91,0.00,,,0.00,WeatherDisplay:10.37,2014-02-22 14:42:00,
2014-02-22 09:47:00,36.1,33.5,29.75,WSW,248,1.4,3.5,90,0.00,,,0.00,WeatherDisplay:10.37,2014-02-22 14:47:00,
2014-02-22 09:52:00,37.2,34.6,29.74,West,270,0.1,6.5,90,0.00,,,0.00,WeatherDisplay:10.37,2014-02-22 14:52:00,
2014-02-22 09:57:00,38.3,35.3,29.74,SSW,202,0.0,0.0,89,0.00,,,0.00,WeatherDisplay:10.37,2014-02-22 14:57:00,
2014-02-22 10:02:00,39.0,35.5,29.74,WNW,292,3.5,5.8,87,0.00,,,0.00,WeatherDisplay:10.37,2014-02-22 15:02:00,
2014-02-22 10:07:00,39.9,35.8,29.73,South,180,0.0,0.0,85,0.00,,,0.00,WeatherDisplay:10.37,2014-02-22 15:07:00,
2014-02-22 10:12:00,41.2,36.4,29.74,SSE,158,6.8,42.7,83,0.00,,,0.00,WeatherDisplay:10.37,2014-02-22 15:12:00,
2014-02-22 10:17:00,42.4,37.3,29.74,SW,225,6.4,42.6,82,0.00,,,0.00,WeatherDisplay:10.37,2014-02-22 15:17:00,
2014-02-22 10:22:00,43.2,37.4,29.74,SW,225,21.3,42.6,80,0.00,,,0.00,WeatherDisplay:10.37,2014-02-22 15:22:00,
2014-02-22 10:27:00,44.1,37.6,29.74,WSW,248,7.0,42.6,78,0.00,,,0.00,WeatherDisplay:10.37,2014-02-22 15:27:00,
2014-02-22 10:32:00,44.2,37.2,29.73,SW,225,12.8,42.6,76,0.00,,,0.00,WeatherDisplay:10.37,2014-02-22 15:32:00,
2014-02-22 10:37:00,44.4,37.0,29.73,WSW,248,32.7,42.6,75,0.00,,,0.00,WeatherDisplay:10.37,2014-02-22 15:37:00,
2014-02-22 10:42:00,44.8,37.3,29.73,WSW,248,37.0,42.6,75,0.00,,,0.00,WeatherDisplay:10.37,2014-02-22 15:42:00,
2014-02-22 10:47:00,45.3,37.2,29.72,SSE,158,37.0,42.7,73,0.00,,,0.00,WeatherDisplay:10.37,2014-02-22 15:47:00,
2014-02-22 10:52:00,46.0,37.2,29.73,SSE,158,37.0,42.7,71,0.00,,,0.00,WeatherDisplay:10.37,2014-02-22 15:52:00,
2014-02-22 10:57:00,46.6,37.0,29.73,SSE,158,37.0,42.7,69,0.00,,,0.00,WeatherDisplay:10.37,2014-02-22 15:57:00,
2014-02-22 11:02:00,46.9,36.9,29.73,SSE,158,37.0,42.6,68,0.00,,,0.00,WeatherDisplay:10.37,2014-02-22 16:02:00,
2014-02-22 11:07:00,47.5,36.7,29.74,SSE,158,37.0,42.6,66,0.00,,,0.00,WeatherDisplay:10.37,2014-02-22 16:07:00,
2014-02-22 11:12:00,47.5,35.1,29.73,SSE,158,37.0,42.7,62,0.00,,,0.00,WeatherDisplay:10.37,2014-02-22 16:12:00,
2014-02-22 11:17:00,46.8,31.4,29.74,SSE,158,37.0,42.7,55,0.00,,,0.00,WeatherDisplay:10.37,2014-02-22 16:17:00,
2014-02-22 11:22:00,46.2,31.4,29.74,SSE,158,37.0,42.7,56,0.00,,,0.00,WeatherDisplay:10.37,2014-02-22 16:22:00,
2014-02-22 11:27:00,46.0,31.2,29.73,SSE,158,37.0,42.7,56,0.00,,,0.00,WeatherDisplay:10.37,2014-02-22 16:27:00,
2014-02-22 11:32:00,45.9,31.0,29.72,SSE,158,37.0,42.7,56,0.00,,,0.00,WeatherDisplay:10.37,2014-02-22 16:32:00,
2014-02-22 11:37:00,46.0,31.6,29.72,SSE,158,37.0,42.7,57,0.00,,,0.00,WeatherDisplay:10.37,2014-02-22 16:37:00,
2014-02-22 11:42:00,46.6,31.7,29.71,WSW,248,42.1,42.6,56,0.00,,,0.00,WeatherDisplay:10.37,2014-02-22 16:42:00,
2014-02-22 11:47:00,46.8,31.0,29.71,SSE,158,39.6,42.7,54,0.00,,,0.00,WeatherDisplay:10.37,2014-02-22 16:47:00,
2014-02-22 11:52:00,47.1,31.3,29.71,SSE,158,34.6,42.7,54,0.00,,,0.00,WeatherDisplay:10.37,2014-02-22 16:52:00,
2014-02-22 11:57:00,47.3,31.0,29.71,SSE,158,26.8,42.7,53,0.00,,,0.00,WeatherDisplay:10.37,2014-02-22 16:57:00,
2014-02-22 12:02:00,47.7,31.4,29.71,WSW,248,9.5,18.4,53,0.00,,,0.00,WeatherDisplay:10.37,2014-02-22 17:02:00,
2014-02-22 12:07:00,48.2,30.4,29.70,WSW,248,30.7,42.6,50,0.00,,,0.00,WeatherDisplay:10.37,2014-02-22 17:07:00,
2014-02-22 12:12:00,48.7,31.4,29.70,WSW,248,14.5,42.6,51,0.00,,,0.00,WeatherDisplay:10.37,2014-02-22 17:12:00,
2014-02-22 12:17:00,49.6,31.7,29.70,SSE,158,29.5,42.7,50,0.00,,,0.00,WeatherDisplay:10.37,2014-02-22 17:17:00,
2014-02-22 12:22:00,49.8,31.9,29.70,SSE,158,33.6,42.7,50,0.00,,,0.00,WeatherDisplay:10.37,2014-02-22 17:22:00,
2014-02-22 12:27:00,50.2,31.7,29.70,SSE,158,42.0,42.7,49,0.00,,,0.00,WeatherDisplay:10.37,2014-02-22 17:27:00,
2014-02-22 12:32:00,50.7,31.2,29.70,SSE,158,42.0,42.7,47,0.00,,,0.00,WeatherDisplay:10.37,2014-02-22 17:32:00,
2014-02-22 12:37:00,50.7,31.2,29.70,SSE,158,42.0,42.7,47,0.00,,,0.00,WeatherDisplay:10.37,2014-02-22 17:37:00,
2014-02-22 12:42:00,51.1,31.5,29.70,SSE,158,42.0,42.7,47,0.00,,,0.00,WeatherDisplay:10.37,2014-02-22 17:42:00,
2014-02-22 12:47:00,50.9,30.8,29.69,SSE,158,42.0,42.7,46,0.00,,,0.00,WeatherDisplay:10.37,2014-02-22 17:47:00,
2014-02-22 12:52:00,51.4,31.3,29.69,SSE,158,42.0,42.6,46,0.00,,,0.00,WeatherDisplay:10.37,2014-02-22 17:52:00,
2014-02-22 12:57:00,51.8,31.1,29.69,SSE,158,42.0,42.7,45,0.00,,,0.00,WeatherDisplay:10.37,2014-02-22 17:57:00,
2014-02-22 13:02:00,52.0,31.3,29.69,SSE,158,42.0,42.6,45,0.00,,,0.00,WeatherDisplay:10.37,2014-02-22 18:02:00,
2014-02-22 13:07:00,52.3,31.6,29.69,WSW,248,5.2,11.5,45,0.00,,,0.00,WeatherDisplay:10.37,2014-02-22 18:07:00,
2014-02-22 13:12:00,52.9,31.0,29.69,SW,225,9.9,18.4,43,0.00,,,0.00,WeatherDisplay:10.37,2014-02-22 18:12:00,
2014-02-22 13:17:00,53.1,31.7,29.69,WSW,248,1.6,2.9,44,0.00,,,0.00,WeatherDisplay:10.37,2014-02-22 18:17:00,
2014-02-22 13:22:00,54.1,32.1,29.69,WSW,248,2.0,6.9,43,0.00,,,0.00,WeatherDisplay:10.37,2014-02-22 18:22:00,
2014-02-22 13:27:00,55.0,32.9,29.69,WSW,248,9.0,21.9,43,0.00,,,0.00,WeatherDisplay:10.37,2014-02-22 18:27:00,
2014-02-22 13:32:00,54.9,32.2,29.69,WSW,248,9.2,16.1,42,0.00,,,0.00,WeatherDisplay:10.37,2014-02-22 18:32:00,
2014-02-22 13:37:00,54.7,32.0,29.69,WSW,248,11.6,15.0,42,0.00,,,0.00,WeatherDisplay:10.37,2014-02-22 18:37:00,
2014-02-22 13:42:00,54.1,31.5,29.69,WSW,248,4.4,5.8,42,0.00,,,0.00,WeatherDisplay:10.37,2014-02-22 18:42:00,
2014-02-22 13:47:00,54.0,31.4,29.68,WSW,248,9.2,17.3,42,0.00,,,0.00,WeatherDisplay:10.37,2014-02-22 18:47:00,
2014-02-22 13:52:00,53.4,30.3,29.68,WSW,248,14.3,24.2,41,0.00,,,0.00,WeatherDisplay:10.37,2014-02-22 18:52:00,
2014-02-22 13:57:00,53.2,30.7,29.69,WSW,248,3.7,6.9,42,0.00,,,0.00,WeatherDisplay:10.37,2014-02-22 18:57:00,
2014-02-22 14:02:00,52.9,30.4,29.69,WSW,248,3.1,0.0,42,0.00,,,0.00,WeatherDisplay:10.37,2014-02-22 19:02:00,
2014-02-22 14:07:00,52.9,29.8,29.69,WSW,248,3.5,12.7,41,0.00,,,0.00,WeatherDisplay:10.37,2014-02-22 19:07:00,
2014-02-22 14:12:00,52.9,30.4,29.69,WSW,248,11.4,17.3,42,0.00,,,0.00,WeatherDisplay:10.37,2014-02-22 19:12:00,
2014-02-22 14:17:00,53.2,30.1,29.69,WSW,248,6.0,8.1,41,0.00,,,0.00,WeatherDisplay:10.37,2014-02-22 19:17:00,
2014-02-22 14:22:00,53.4,30.3,29.69,SW,225,10.3,19.9,41,0.00,,,0.00,WeatherDisplay:10.37,2014-02-22 19:22:00,
2014-02-22 14:27:00,53.2,30.1,29.70,SSW,202,13.0,24.2,41,0.00,,,0.00,WeatherDisplay:10.37,2014-02-22 19:27:00,
2014-02-22 14:32:00,52.3,29.3,29.69,SW,225,2.3,9.2,41,0.00,,,0.00,WeatherDisplay:10.37,2014-02-22 19:32:00,
2014-02-22 14:37:00,51.6,28.7,29.69,South,180,10.0,17.3,41,0.00,,,0.00,WeatherDisplay:10.37,2014-02-22 19:37:00,
2014-02-22 14:42:00,50.7,28.4,29.70,WSW,248,7.0,18.3,42,0.00,,,0.00,WeatherDisplay:10.37,2014-02-22 19:42:00,
2014-02-22 14:47:00,50.9,28.6,29.70,WSW,248,8.5,11.5,42,0.00,,,0.00,WeatherDisplay:10.37,2014-02-22 19:47:00,
2014-02-22 14:52:00,51.6,29.8,29.70,WSW,248,5.9,42.6,43,0.00,,,0.00,WeatherDisplay:10.37,2014-02-22 19:52:00,
2014-02-22 14:57:00,52.0,29.6,29.70,WSW,248,8.8,19.6,42,0.00,,,0.00,WeatherDisplay:10.37,2014-02-22 19:57:00,
2014-02-22 15:02:00,52.2,29.1,29.70,WSW,248,11.1,18.4,41,0.00,,,0.00,WeatherDisplay:10.37,2014-02-22 20:02:00,
2014-02-22 15:07:00,52.3,28.7,29.70,WNW,292,9.6,16.1,40,0.00,,,0.00,WeatherDisplay:10.37,2014-02-22 20:07:00,
2014-02-22 15:12:00,51.8,28.8,29.71,WSW,248,8.7,22.1,41,0.00,,,0.00,WeatherDisplay:10.37,2014-02-22 20:12:00,
2014-02-22 15:17:00,51.3,28.3,29.71,NW,315,10.0,15.0,41,0.00,,,0.00,WeatherDisplay:10.37,2014-02-22 20:17:00,
2014-02-22 15:22:00,50.9,28.0,29.71,WSW,248,4.5,14.3,41,0.00,,,0.00,WeatherDisplay:10.37,2014-02-22 20:22:00,
2014-02-22 15:27:00,50.7,27.8,29.71,SW,225,5.0,13.8,41,0.00,,,0.00,WeatherDisplay:10.37,2014-02-22 20:27:00,
2014-02-22 15:32:00,50.5,27.7,29.71,WNW,292,8.1,18.4,41,0.00,,,0.00,WeatherDisplay:10.37,2014-02-22 20:32:00,
2014-02-22 15:37:00,49.8,27.6,29.71,SW,225,6.0,13.8,42,0.00,,,0.00,WeatherDisplay:10.37,2014-02-22 20:37:00,
2014-02-22 15:42:00,49.3,27.7,29.71,WSW,248,6.0,9.2,43,0.00,,,0.00,WeatherDisplay:10.37,2014-02-22 20:42:00,
2014-02-22 15:47:00,49.5,27.9,29.71,NNW,338,5.5,9.2,43,0.00,,,0.00,WeatherDisplay:10.37,2014-02-22 20:47:00,
2014-02-22 15:52:00,49.8,28.8,29.71,WSW,248,4.6,8.1,44,0.00,,,0.00,WeatherDisplay:10.37,2014-02-22 20:52:00,
2014-02-22 15:57:00,49.8,28.8,29.71,WSW,248,5.7,8.1,44,0.00,,,0.00,WeatherDisplay:10.37,2014-02-22 20:57:00,
2014-02-22 16:02:00,49.6,28.6,29.71,WSW,248,4.6,8.1,44,0.00,,,0.00,WeatherDisplay:10.37,2014-02-22 21:02:00,
2014-02-22 16:07:00,49.6,28.0,29.71,WSW,248,6.1,15.0,43,0.00,,,0.00,WeatherDisplay:10.37,2014-02-22 21:07:00,
2014-02-22 16:12:00,49.6,28.0,29.71,WSW,248,8.9,12.7,43,0.00,,,0.00,WeatherDisplay:10.37,2014-02-22 21:12:00,
2014-02-22 16:17:00,49.5,27.9,29.71,WSW,248,4.4,9.2,43,0.00,,,0.00,WeatherDisplay:10.37,2014-02-22 21:17:00,
2014-02-22 16:23:00,49.1,27.5,29.71,WSW,248,4.2,10.4,43,0.00,,,0.00,WeatherDisplay:10.37,2014-02-22 21:23:00,
2014-02-22 16:28:00,48.7,26.6,29.71,WSW,248,3.7,9.2,42,0.00,,,0.00,WeatherDisplay:10.37,2014-02-22 21:28:00,
2014-02-22 16:33:00,48.6,26.5,29.71,West,270,9.3,24.2,42,0.00,,,0.00,WeatherDisplay:10.37,2014-02-22 21:33:00,
2014-02-22 16:38:00,48.0,26.0,29.72,SW,225,14.2,23.0,42,0.00,,,0.00,WeatherDisplay:10.37,2014-02-22 21:38:00,
2014-02-22 16:43:00,47.7,25.1,29.72,WSW,248,4.8,9.2,41,0.00,,,0.00,WeatherDisplay:10.37,2014-02-22 21:43:00,
2014-02-22 16:48:00,47.1,24.6,29.72,NW,315,11.8,18.4,41,0.00,,,0.00,WeatherDisplay:10.37,2014-02-22 21:48:00,
2014-02-22 16:53:00,46.9,23.8,29.73,West,270,5.6,25.3,40,0.00,,,0.00,WeatherDisplay:10.37,2014-02-22 21:53:00,
2014-02-22 16:58:00,46.6,23.5,29.72,SW,225,8.2,12.7,40,0.00,,,0.00,WeatherDisplay:10.37,2014-02-22 21:58:00,
2014-02-22 17:03:00,46.0,22.4,29.73,SSE,158,11.6,13.8,39,0.00,,,0.00,WeatherDisplay:10.37,2014-02-22 22:03:00,
2014-02-22 17:08:00,45.7,23.3,29.73,WNW,292,6.7,11.5,41,0.00,,,0.00,WeatherDisplay:10.37,2014-02-22 22:08:00,
2014-02-22 17:13:00,45.3,23.0,29.74,WSW,248,8.6,19.4,41,0.00,,,0.00,WeatherDisplay:10.37,2014-02-22 22:13:00,
2014-02-22 17:18:00,45.0,22.6,29.73,WSW,248,4.8,8.7,41,0.00,,,0.00,WeatherDisplay:10.37,2014-02-22 22:18:00,
2014-02-22 17:23:00,44.8,22.5,29.74,West,270,9.6,17.9,41,0.00,,,0.00,WeatherDisplay:10.37,2014-02-22 22:23:00,
2014-02-22 17:28:00,44.4,22.2,29.74,West,270,3.7,10.4,41,0.00,,,0.00,WeatherDisplay:10.37,2014-02-22 22:28:00,
2014-02-22 17:33:00,44.2,22.0,29.74,South,180,4.0,6.9,41,0.00,,,0.00,WeatherDisplay:10.37,2014-02-22 22:33:00,
2014-02-22 17:38:00,44.1,21.8,29.74,SSW,202,7.7,14.1,41,0.00,,,0.00,WeatherDisplay:10.37,2014-02-22 22:38:00,
2014-02-22 17:43:00,43.9,21.7,29.73,NNW,338,4.7,10.1,41,0.00,,,0.00,WeatherDisplay:10.37,2014-02-22 22:43:00,
2014-02-22 17:48:00,43.7,21.5,29.74,West,270,8.3,19.6,41,0.00,,,0.00,WeatherDisplay:10.37,2014-02-22 22:48:00,
2014-02-22 17:53:00,43.5,21.3,29.74,SSW,202,10.4,18.4,41,0.00,,,0.00,WeatherDisplay:10.37,2014-02-22 22:53:00,
2014-02-22 17:58:00,43.3,21.2,29.75,WNW,292,3.2,6.9,41,0.00,,,0.00,WeatherDisplay:10.37,2014-02-22 22:58:00,
2014-02-22 18:03:00,43.3,21.2,29.75,WNW,292,7.8,19.6,41,0.00,,,0.00,WeatherDisplay:10.37,2014-02-22 23:03:00,
2014-02-22 18:08:00,43.2,20.4,29.75,NW,315,9.9,20.7,40,0.00,,,0.00,WeatherDisplay:10.37,2014-02-22 23:08:00,
2014-02-22 18:13:00,43.2,20.4,29.75,SSE,158,11.7,19.6,40,0.00,,,0.00,WeatherDisplay:10.37,2014-02-22 23:13:00,
2014-02-22 18:18:00,43.2,21.0,29.76,WSW,248,13.3,24.2,41,0.00,,,0.00,WeatherDisplay:10.37,2014-02-22 23:18:00,
2014-02-22 18:23:00,43.0,20.3,29.76,WNW,292,6.5,8.1,40,0.00,,,0.00,WeatherDisplay:10.37,2014-02-22 23:23:00,
2014-02-22 18:28:00,43.0,20.3,29.76,ESE,112,1.9,8.1,40,0.00,,,0.00,WeatherDisplay:10.37,2014-02-22 23:28:00,
2014-02-22 18:33:00,43.0,19.7,29.75,South,180,5.4,11.5,39,0.00,,,0.00,WeatherDisplay:10.37,2014-02-22 23:33:00,
2014-02-22 18:38:00,42.8,19.5,29.76,WSW,248,1.3,8.1,39,0.00,,,0.00,WeatherDisplay:10.37,2014-02-22 23:38:00,
2014-02-22 18:43:00,42.6,20.0,29.76,West,270,3.7,5.8,40,0.00,,,0.00,WeatherDisplay:10.37,2014-02-22 23:43:00,
2014-02-22 18:48:00,42.4,19.8,29.76,SSW,202,7.7,10.4,40,0.00,,,0.00,WeatherDisplay:10.37,2014-02-22 23:48:00,
2014-02-22 18:53:00,42.1,20.0,29.76,WNW,292,4.5,9.2,41,0.00,,,0.00,WeatherDisplay:10.37,2014-02-22 23:53:00,
2014-02-22 18:58:00,41.9,19.9,29.77,SW,225,0.0,0.0,41,0.00,,,0.00,WeatherDisplay:10.37,2014-02-22 23:58:00,
2014-02-22 19:03:00,41.5,20.1,29.77,SSW,202,3.6,5.8,42,0.00,,,0.00,WeatherDisplay:10.37,2014-02-23 00:03:00,
2014-02-22 19:08:00,41.2,20.3,29.77,South,180,0.0,0.0,43,0.00,,,0.00,WeatherDisplay:10.37,2014-02-23 00:08:00,
2014-02-22 19:13:00,40.8,20.6,29.77,South,180,5.9,8.1,44,0.00,,,0.00,WeatherDisplay:10.37,2014-02-23 00:13:00,
2014-02-22 19:18:00,40.8,20.0,29.76,NW,315,7.4,13.8,43,0.00,,,0.00,WeatherDisplay:10.37,2014-02-23 00:18:00,
2014-02-22 19:23:00,40.6,19.3,29.77,SW,225,1.8,6.9,42,0.00,,,0.00,WeatherDisplay:10.37,2014-02-23 00:23:00,
2014-02-22 19:28:00,40.6,19.3,29.77,SW,225,1.5,4.6,42,0.00,,,0.00,WeatherDisplay:10.37,2014-02-23 00:28:00,
2014-02-22 19:33:00,40.6,18.7,29.77,WNW,292,7.1,8.1,41,0.00,,,0.00,WeatherDisplay:10.37,2014-02-23 00:33:00,
2014-02-22 19:38:00,40.6,18.2,29.77,South,180,5.1,9.2,40,0.00,,,0.00,WeatherDisplay:10.37,2014-02-23 00:38:00,
2014-02-22 19:43:00,40.8,18.3,29.77,North,0,7.1,16.1,40,0.00,,,0.00,WeatherDisplay:10.37,2014-02-23 00:43:00,
2014-02-22 19:48:00,40.8,18.3,29.77,NW,315,1.0,3.5,40,0.00,,,0.00,WeatherDisplay:10.37,2014-02-23 00:48:00,
2014-02-22 19:53:00,40.8,18.3,29.78,SSE,158,5.1,10.4,40,0.00,,,0.00,WeatherDisplay:10.37,2014-02-23 00:53:00,
2014-02-22 19:59:00,40.6,18.2,29.78,WSW,248,9.0,23.0,40,0.00,,,0.00,WeatherDisplay:10.37,2014-02-23 00:59:00,
2014-02-22 20:04:00,40.6,17.6,29.78,WSW,248,14.5,18.4,39,0.00,,,0.00,WeatherDisplay:10.37,2014-02-23 01:04:00,
2014-02-22 20:09:00,40.6,17.6,29.79,SW,225,13.2,25.3,39,0.00,,,0.00,WeatherDisplay:10.37,2014-02-23 01:09:00,
2014-02-22 20:14:00,40.6,17.6,29.79,WSW,248,11.2,20.7,39,0.00,,,0.00,WeatherDisplay:10.37,2014-02-23 01:14:00,
2014-02-22 20:19:00,40.5,17.4,29.79,WNW,292,5.8,11.5,39,0.00,,,0.00,WeatherDisplay:10.37,2014-02-23 01:19:00,
2014-02-22 20:24:00,40.5,17.4,29.79,SW,225,6.1,8.1,39,0.00,,,0.00,WeatherDisplay:10.37,2014-02-23 01:24:00,
2014-02-22 20:29:00,40.3,17.3,29.79,South,180,6.6,12.7,39,0.00,,,0.00,WeatherDisplay:10.37,2014-02-23 01:29:00,
2014-02-22 20:34:00,40.1,17.7,29.79,SW,225,4.5,11.5,40,0.00,,,0.00,WeatherDisplay:10.37,2014-02-23 01:34:00,
2014-02-22 20:39:00,39.9,17.5,29.79,WSW,248,0.1,1.6,40,0.00,,,0.00,WeatherDisplay:10.37,2014-02-23 01:39:00,
2014-02-22 20:44:00,39.9,18.1,29.79,SSW,202,0.0,0.0,41,0.00,,,0.00,WeatherDisplay:10.37,2014-02-23 01:44:00,
2014-02-22 20:49:00,39.7,17.9,29.79,SSW,202,0.9,3.5,41,0.00,,,0.00,WeatherDisplay:10.37,2014-02-23 01:49:00,
2014-02-22 20:54:00,39.4,18.2,29.79,WSW,248,0.0,0.9,42,0.00,,,0.00,WeatherDisplay:10.37,2014-02-23 01:54:00,
2014-02-22 20:59:00,39.0,17.8,29.79,SW,225,0.0,0.0,42,0.00,,,0.00,WeatherDisplay:10.37,2014-02-23 01:59:00,
2014-02-22 21:04:00,38.8,18.2,29.79,WNW,292,0.9,5.8,43,0.00,,,0.00,WeatherDisplay:10.37,2014-02-23 02:04:00,
2014-02-22 21:09:00,38.8,18.2,29.79,SE,135,0.0,0.0,43,0.00,,,0.00,WeatherDisplay:10.37,2014-02-23 02:09:00,
2014-02-22 21:14:00,38.5,18.4,29.80,SW,225,0.8,3.6,44,0.00,,,0.00,WeatherDisplay:10.37,2014-02-23 02:14:00,
2014-02-22 21:19:00,38.1,18.6,29.79,South,180,2.5,5.8,45,0.00,,,0.00,WeatherDisplay:10.37,2014-02-23 02:19:00,
2014-02-22 21:24:00,37.9,18.5,29.79,WNW,292,1.2,4.6,45,0.00,,,0.00,WeatherDisplay:10.37,2014-02-23 02:24:00,
2014-02-22 21:29:00,37.9,18.5,29.80,WSW,248,0.8,7.4,45,0.00,,,0.00,WeatherDisplay:10.37,2014-02-23 02:29:00,
2014-02-22 21:34:00,37.9,18.5,29.80,SW,225,1.6,4.6,45,0.00,,,0.00,WeatherDisplay:10.37,2014-02-23 02:34:00,
2014-02-22 21:39:00,38.1,19.1,29.80,SW,225,6.6,11.5,46,0.00,,,0.00,WeatherDisplay:10.37,2014-02-23 02:39:00,
2014-02-22 21:44:00,38.1,19.1,29.80,NNW,338,0.8,6.9,46,0.00,,,0.00,WeatherDisplay:10.37,2014-02-23 02:44:00,
2014-02-22 21:49:00,38.3,19.3,29.80,WSW,248,5.7,10.4,46,0.00,,,0.00,WeatherDisplay:10.37,2014-02-23 02:49:00,
2014-02-22 21:54:00,38.5,19.5,29.80,NW,315,0.0,0.0,46,0.00,,,0.00,WeatherDisplay:10.37,2014-02-23 02:54:00,
2014-02-22 21:59:00,38.3,19.3,29.80,WSW,248,2.7,4.6,46,0.00,,,0.00,WeatherDisplay:10.37,2014-02-23 02:59:00,
2014-02-22 22:04:00,38.3,19.3,29.80,SSW,202,0.0,0.0,46,0.00,,,0.00,WeatherDisplay:10.37,2014-02-23 03:04:00,
2014-02-22 22:09:00,38.1,19.6,29.80,WNW,292,0.0,0.0,47,0.00,,,0.00,WeatherDisplay:10.37,2014-02-23 03:09:00,
2014-02-22 22:14:00,37.9,19.5,29.80,WNW,292,0.0,0.0,47,0.00,,,0.00,WeatherDisplay:10.37,2014-02-23 03:14:00,
2014-02-22 22:19:00,37.6,19.6,29.80,West,270,0.0,0.0,48,0.00,,,0.00,WeatherDisplay:10.37,2014-02-23 03:19:00,
2014-02-22 22:24:00,37.0,20.1,29.81,WNW,292,0.0,0.0,50,0.00,,,0.00,WeatherDisplay:10.37,2014-02-23 03:24:00,
2014-02-22 22:29:00,36.7,20.2,29.81,West,270,0.0,0.0,51,0.00,,,0.00,WeatherDisplay:10.37,2014-02-23 03:29:00,
2014-02-22 22:34:00,36.1,20.2,29.81,West,270,0.0,0.0,52,0.00,,,0.00,WeatherDisplay:10.37,2014-02-23 03:34:00,
2014-02-22 22:39:00,35.6,20.1,29.81,WNW,292,5.1,8.1,53,0.00,,,0.00,WeatherDisplay:10.37,2014-02-23 03:39:00,
2014-02-22 22:44:00,35.4,20.0,29.82,West,270,0.0,0.0,53,0.00,,,0.00,WeatherDisplay:10.37,2014-02-23 03:44:00,
2014-02-22 22:49:00,35.2,20.2,29.81,ENE,68,0.8,3.5,54,0.00,,,0.00,WeatherDisplay:10.37,2014-02-23 03:49:00,
2014-02-22 22:54:00,35.2,20.7,29.81,West,270,4.7,15.0,55,0.00,,,0.00,WeatherDisplay:10.37,2014-02-23 03:54:00,
2014-02-22 22:59:00,35.8,20.7,29.82,SSW,202,3.7,6.9,54,0.00,,,0.00,WeatherDisplay:10.37,2014-02-23 03:59:00,
2014-02-22 23:04:00,36.3,21.2,29.82,North,0,6.2,10.4,54,0.00,,,0.00,WeatherDisplay:10.37,2014-02-23 04:04:00,
2014-02-22 23:09:00,37.0,21.9,29.82,SW,225,4.1,11.5,54,0.00,,,0.00,WeatherDisplay:10.37,2014-02-23 04:09:00,
2014-02-22 23:14:00,37.4,22.3,29.82,WNW,292,8.4,11.5,54,0.00,,,0.00,WeatherDisplay:10.37,2014-02-23 04:14:00,
2014-02-22 23:19:00,37.9,23.2,29.83,SSW,202,9.1,11.5,55,0.00,,,0.00,WeatherDisplay:10.37,2014-02-23 04:19:00,
2014-02-22 23:24:00,38.5,23.7,29.83,SSW,202,10.0,15.0,55,0.00,,,0.00,WeatherDisplay:10.37,2014-02-23 04:24:00,
2014-02-22 23:29:00,38.8,24.5,29.82,WNW,292,3.7,8.1,56,0.00,,,0.00,WeatherDisplay:10.37,2014-02-23 04:29:00,
2014-02-22 23:34:00,38.8,24.9,29.83,SW,225,14.4,23.0,57,0.00,,,0.00,WeatherDisplay:10.37,2014-02-23 04:34:00,
2014-02-22 23:39:00,38.8,24.9,29.83,West,270,11.4,15.0,57,0.00,,,0.00,WeatherDisplay:10.37,2014-02-23 04:39:00,
2014-02-22 23:44:00,39.0,25.5,29.83,South,180,7.5,23.0,58,0.00,,,0.00,WeatherDisplay:10.37,2014-02-23 04:44:00,
2014-02-22 23:49:00,39.0,25.5,29.83,SSW,202,14.2,25.3,58,0.00,,,0.00,WeatherDisplay:10.37,2014-02-23 04:49:00,
2014-02-22 23:54:00,39.0,25.9,29.83,SW,225,13.3,20.7,59,0.00,,,0.00,WeatherDisplay:10.37,2014-02-23 04:54:00,
2014-02-22 23:59:00,39.0,25.9,29.83,WSW,248,11.0,11.0,59,0.00,,,0.00,WeatherDisplay:10.37,2014-02-23 04:59:00,